When you browse on this site, cookies collect data to enhance your experience and personalize the content and advertising you see.
Visit our Privacy Policy to learn more. By continuing to use the site, you agree to this use of cookies and data.
  • In Schweiz
  • Länderverzeichnis
  • Für 7 Tage
  • Wassertemperatur
  • Wetterkarte
  • Widgets
  • user-avatar
    Anmelden

    Stündliche Wetter Pridneprovskaya

    Heute, 20 August, Dienstag

    Zeit Temperatur Niederschläge Wind Luftdruck Luftfeuchtigkeit
    00:00 +17°C° 0 mm 3 m/S 747 mmHg 89%
    01:00 +17°C° 0 mm 2 m/S 747 mmHg 88%
    02:00 +17°C° 0 mm 2 m/S 747 mmHg 88%
    03:00 +16°C° 0 mm 2 m/S 748 mmHg 88%
    04:00 +16°C° 0 mm 2 m/S 748 mmHg 88%
    05:00 +16°C° 0 mm 2 m/S 748 mmHg 88%
    06:00 +17°C° 0.1 mm 2 m/S 748 mmHg 85%
    07:00 +19°C° 0.1 mm 2 m/S 748 mmHg 82%
    08:00 +20°C° 0.1 mm 3 m/S 748 mmHg 80%
    09:00 +21°C° 0 mm 2 m/S 749 mmHg 77%
    10:00 +24°C° 0 mm 2 m/S 749 mmHg 75%
    11:00 +25°C° 0 mm 2 m/S 749 mmHg 73%
    12:00 +26°C° 0.7 mm 2 m/S 749 mmHg 74%
    13:00 +26°C° 0.7 mm 2 m/S 749 mmHg 75%
    14:00 +27°C° 0.7 mm 3 m/S 749 mmHg 76%
    15:00 +26°C° 0.9 mm 2 m/S 749 mmHg 80%
    16:00 +25°C° 0.9 mm 2 m/S 749 mmHg 83%
    17:00 +25°C° 0.9 mm 1 m/S 749 mmHg 86%
    18:00 +24°C° 0.1 mm 1 m/S 749 mmHg 88%
    19:00 +22°C° 0.1 mm 1 m/S 749 mmHg 89%
    20:00 +21°C° 0.1 mm 1 m/S 749 mmHg 91%
    21:00 +21°C° 0 mm 1 m/S 750 mmHg 91%
    22:00 +21°C° 0 mm 1 m/S 750 mmHg 92%
    23:00 +21°C° 0 mm 1 m/S 750 mmHg 93%

    Morgen, 21 August, Mittwoch

    Zeit Temperatur Niederschläge Wind Luftdruck Luftfeuchtigkeit
    00:00 +20°C° 0.1 mm 1 m/S 750 mmHg 93%
    01:00 +20°C° 0.1 mm 1 m/S 750 mmHg 93%
    02:00 +20°C° 0.1 mm 1 m/S 750 mmHg 94%
    03:00 +20°C° 0.6 mm 1 m/S 750 mmHg 94%
    04:00 +19°C° 0.6 mm 1 m/S 750 mmHg 95%
    05:00 +19°C° 0.6 mm 1 m/S 750 mmHg 95%
    06:00 +20°C° 0.1 mm 1 m/S 750 mmHg 93%
    07:00 +20°C° 0.1 mm 2 m/S 750 mmHg 91%
    08:00 +21°C° 0.1 mm 2 m/S 750 mmHg 89%
    09:00 +23°C° 0 mm 2 m/S 750 mmHg 84%
    10:00 +24°C° 0 mm 3 m/S 750 mmHg 79%
    11:00 +26°C° 0 mm 3 m/S 750 mmHg 74%
    12:00 +27°C° 0 mm 3 m/S 749 mmHg 71%
    13:00 +27°C° 0 mm 3 m/S 749 mmHg 67%
    14:00 +28°C° 0 mm 4 m/S 749 mmHg 64%
    15:00 +28°C° 0.1 mm 3 m/S 749 mmHg 68%
    16:00 +27°C° 0.1 mm 3 m/S 748 mmHg 72%
    17:00 +27°C° 0.1 mm 3 m/S 748 mmHg 77%
    18:00 +25°C° 0.1 mm 3 m/S 748 mmHg 80%
    19:00 +24°C° 0.1 mm 3 m/S 748 mmHg 84%
    20:00 +21°C° 0.1 mm 3 m/S 747 mmHg 88%
    21:00 +21°C° 0 mm 3 m/S 747 mmHg 88%
    22:00 +20°C° 0 mm 3 m/S 747 mmHg 88%
    23:00 +20°C° 0 mm 3 m/S 747 mmHg 89%

    übermorgen, 22 August, Donnerstag

    Zeit Temperatur Niederschläge Wind Luftdruck Luftfeuchtigkeit
    00:00 +19°C° 0.1 mm 3 m/S 748 mmHg 89%
    01:00 +19°C° 0.1 mm 3 m/S 748 mmHg 89%
    02:00 +19°C° 0.1 mm 2 m/S 748 mmHg 90%
    03:00 +18°C° 0.2 mm 3 m/S 748 mmHg 92%
    04:00 +18°C° 0.2 mm 3 m/S 748 mmHg 94%
    05:00 +17°C° 0.2 mm 3 m/S 748 mmHg 97%
    06:00 +17°C° 0.4 mm 4 m/S 748 mmHg 96%
    07:00 +15°C° 0.4 mm 4 m/S 749 mmHg 95%
    08:00 +15°C° 0.4 mm 5 m/S 749 mmHg 94%
    09:00 +17°C° 0.1 mm 4 m/S 750 mmHg 90%
    10:00 +17°C° 0.1 mm 4 m/S 750 mmHg 87%
    11:00 +18°C° 0.1 mm 4 m/S 750 mmHg 84%
    12:00 +19°C° 0 mm 4 m/S 750 mmHg 78%
    13:00 +20°C° 0 mm 4 m/S 750 mmHg 72%
    14:00 +22°C° 0 mm 4 m/S 751 mmHg 66%
    15:00 +21°C° 0 mm 3 m/S 751 mmHg 68%
    16:00 +21°C° 0 mm 3 m/S 751 mmHg 70%
    17:00 +21°C° 0 mm 2 m/S 751 mmHg 73%
    18:00 +20°C° 0 mm 2 m/S 751 mmHg 77%
    19:00 +18°C° 0 mm 2 m/S 751 mmHg 81%
    20:00 +16°C° 0 mm 2 m/S 751 mmHg 85%
    21:00 +15°C° 0 mm 2 m/S 752 mmHg 85%
    22:00 +15°C° 0 mm 2 m/S 752 mmHg 85%
    23:00 +14°C° 0 mm 2 m/S 752 mmHg 85%

    23 August, Freitag

    Zeit Temperatur Niederschläge Wind Luftdruck Luftfeuchtigkeit
    00:00 +13°C° 0 mm 2 m/S 752 mmHg 87%
    01:00 +13°C° 0 mm 2 m/S 752 mmHg 88%
    02:00 +12°C° 0 mm 2 m/S 752 mmHg 89%
    03:00 +12°C° 0 mm 2 m/S 752 mmHg 89%
    04:00 +11°C° 0 mm 1 m/S 752 mmHg 90%
    05:00 +11°C° 0 mm 1 m/S 752 mmHg 90%
    06:00 +13°C° 0 mm 1 m/S 752 mmHg 85%
    07:00 +15°C° 0 mm 1 m/S 753 mmHg 80%
    08:00 +16°C° 0 mm 1 m/S 753 mmHg 75%
    09:00 +19°C° 0 mm 1 m/S 753 mmHg 70%
    10:00 +20°C° 0 mm 1 m/S 753 mmHg 65%
    11:00 +21°C° 0 mm 2 m/S 753 mmHg 59%
    12:00 +21°C° 0 mm 2 m/S 753 mmHg 57%
    13:00 +23°C° 0 mm 2 m/S 753 mmHg 55%
    14:00 +23°C° 0 mm 2 m/S 753 mmHg 53%
    15:00 +23°C° 0 mm 2 m/S 752 mmHg 58%
    16:00 +21°C° 0 mm 2 m/S 752 mmHg 63%
    17:00 +21°C° 0 mm 2 m/S 752 mmHg 69%
    18:00 +19°C° 0 mm 2 m/S 752 mmHg 73%
    19:00 +17°C° 0 mm 2 m/S 752 mmHg 78%
    20:00 +15°C° 0 mm 2 m/S 752 mmHg 83%
    21:00 +14°C° 0 mm 2 m/S 753 mmHg 85%
    22:00 +14°C° 0 mm 1 m/S 753 mmHg 87%
    23:00 +13°C° 0 mm 1 m/S 753 mmHg 88%

    24 August, Samstag

    Zeit Temperatur Niederschläge Wind Luftdruck Luftfeuchtigkeit
    00:00 +13°C° 0 mm 1 m/S 753 mmHg 89%
    01:00 +13°C° 0 mm 1 m/S 753 mmHg 91%
    02:00 +13°C° 0 mm 1 m/S 753 mmHg 92%
    03:00 +12°C° 0 mm 1 m/S 753 mmHg 92%
    04:00 +12°C° 0 mm 1 m/S 753 mmHg 92%
    05:00 +12°C° 0 mm 1 m/S 753 mmHg 92%
    06:00 +14°C° 0 mm 1 m/S 753 mmHg 87%
    07:00 +16°C° 0 mm 1 m/S 753 mmHg 82%
    08:00 +18°C° 0 mm 1 m/S 754 mmHg 76%
    09:00 +20°C° 0 mm 1 m/S 754 mmHg 71%
    10:00 +20°C° 0 mm 2 m/S 754 mmHg 66%
    11:00 +21°C° 0 mm 2 m/S 754 mmHg 61%
    12:00 +21°C° 0 mm 2 m/S 753 mmHg 60%
    13:00 +23°C° 0 mm 2 m/S 753 mmHg 58%
    14:00 +23°C° 0 mm 2 m/S 753 mmHg 57%
    15:00 +23°C° 0 mm 2 m/S 752 mmHg 61%
    16:00 +21°C° 0 mm 2 m/S 752 mmHg 66%
    17:00 +21°C° 0 mm 2 m/S 752 mmHg 70%
    18:00 +19°C° 0 mm 2 m/S 752 mmHg 76%
    19:00 +18°C° 0 mm 2 m/S 752 mmHg 82%
    20:00 +16°C° 0 mm 2 m/S 752 mmHg 88%
    21:00 +15°C° 0 mm 2 m/S 752 mmHg 89%
    22:00 +15°C° 0 mm 2 m/S 752 mmHg 91%
    23:00 +15°C° 0 mm 2 m/S 752 mmHg 92%

    25 August, Sonntag

    Zeit Temperatur Niederschläge Wind Luftdruck Luftfeuchtigkeit
    00:00 +14°C° 0 mm 2 m/S 752 mmHg 93%
    01:00 +14°C° 0 mm 2 m/S 752 mmHg 93%
    02:00 +14°C° 0 mm 2 m/S 752 mmHg 93%
    03:00 +13°C° 0 mm 2 m/S 751 mmHg 93%
    04:00 +13°C° 0 mm 2 m/S 751 mmHg 93%
    05:00 +13°C° 0 mm 2 m/S 751 mmHg 93%
    06:00 +14°C° 0 mm 2 m/S 751 mmHg 88%
    07:00 +16°C° 0 mm 2 m/S 751 mmHg 83%
    08:00 +18°C° 0 mm 2 m/S 751 mmHg 79%
    09:00 +19°C° 0 mm 3 m/S 751 mmHg 74%
    10:00 +21°C° 0 mm 3 m/S 751 mmHg 69%
    11:00 +22°C° 0 mm 3 m/S 751 mmHg 65%
    12:00 +22°C° 0 mm 3 m/S 750 mmHg 64%
    13:00 +24°C° 0 mm 3 m/S 750 mmHg 62%
    14:00 +24°C° 0 mm 3 m/S 750 mmHg 61%
    15:00 +24°C° 0 mm 3 m/S 750 mmHg 66%
    16:00 +23°C° 0 mm 2 m/S 750 mmHg 70%
    17:00 +23°C° 0 mm 2 m/S 749 mmHg 75%
    18:00 +20°C° 0 mm 2 m/S 749 mmHg 80%
    19:00 +18°C° 0 mm 2 m/S 749 mmHg 85%
    20:00 +18°C° 0 mm 1 m/S 749 mmHg 90%
    21:00 +16°C° 0 mm 1 m/S 750 mmHg 91%
    22:00 +16°C° 0 mm 1 m/S 750 mmHg 91%
    23:00 +15°C° 0 mm 1 m/S 750 mmHg 92%
    Mehr zeigen